Weather History for KMEM - November, 2012

Change the Weather History Date:

Friday, November 9, 2012

  Actual Average Record
Temperature  
Mean Temperature 58 °F 56 °F  
Max Temperature 71 °F 65 °F 80 °F (1942)
Min Temperature 45 °F 46 °F 20 °F (1991)
Degree Days  
Heating Degree Days 7 10  
Month to date heating degree days 96 78  
Since 1 July heating degree days 258 209  
Cooling Degree Days 0 1  
Month to date cooling degree days 3 9  
Year to date cooling degree days 2612 2252  
Growing Degree Days 8 (Base 50)    
Moisture  
Dew Point 42 °F    
Average Humidity 56    
Maximum Humidity 71    
Minimum Humidity 40    
Precipitation  
Precipitation 0.00 in 0.17 in 2.54 in (1987)
Month to date precipitation 0.57 1.41  
Year to date precipitation 30.84 43.86  
Snow  
Snow 0.00 in 0.00 in T in (1941)
Month to date snowfall 0.0 0.0  
Since 1 July snowfall 0.0 0.0  
Since 1 September snowfall 0.0 0.0  
Snow Depth 0.00 in    
Sea Level Pressure  
Sea Level Pressure 30.17 in    
Wind  
Wind Speed 8 mph (South)    
Max Wind Speed 15 mph    
Max Gust Speed 22 mph    
Visibility 10 miles    
Events      
T = Trace of Precipitation, MM = Missing Value Source: NWS Daily Summary

Daily Weather History Graph

Daily Weather History Graph

Search for Another Location

Airport or City:

Trip Planner

Search our weather history database for the weather conditions in past years. The results will help you decide how hot, cold, wet, or windy it might be!

Date:

Astronomy

Nov. 09, 2012 Rise Set
Actual Time 6:29 AM CST 4:58 PM CST
Civil Twilight 6:02 AM CST 5:24 PM CST
Nautical Twilight 5:32 AM CST 5:54 PM CST
Astronomical Twilight 5:02 AM CST 6:24 PM CST
Moon 1:38 AM CST (11/9) 2:02 PM CST (11/9)
Length of Visible Light 11h 22m
Length of Day
10h 28m
Waning Crescent, 23% of the Moon is Illuminated
Nov 9
Waning Crescent
Nov 13
New
Nov 20
First Quarter
Nov 28
Full
Dec 6
Last Quarter

Hourly Weather History & Observations

Time (CST) Temp. Windchill Dew Point Humidity Pressure Visibility Wind Dir Wind Speed Gust Speed Precip Events Conditions
12:54 AM 48.0 °F - 37.9 °F 68% 30.17 in 10.0 mi South 5.8 mph - N/A   Clear
1:51 AM 46.4 °F 42.9 °F 37.4 °F 71% 30.17 in 10.0 mi South 6.9 mph - N/A   Partly Cloudy
1:54 AM 46.4 °F 42.9 °F 37.4 °F 71% 30.17 in 10.0 mi South 6.9 mph - N/A   Partly Cloudy
2:54 AM 46.9 °F - 37.9 °F 71% 30.17 in 10.0 mi South 5.8 mph - N/A   Clear
3:54 AM 48.0 °F - 37.9 °F 68% 30.17 in 10.0 mi South 8.1 mph - N/A   Partly Cloudy
4:54 AM 48.0 °F - 37.9 °F 68% 30.19 in 10.0 mi SSE 3.5 mph - N/A   Mostly Cloudy
5:54 AM 46.0 °F 43.9 °F 37.9 °F 73% 30.20 in 10.0 mi South 4.6 mph - N/A   Mostly Cloudy
6:54 AM 46.0 °F 43.9 °F 37.9 °F 73% 30.22 in 10.0 mi SSE 4.6 mph - N/A   Scattered Clouds
7:54 AM 51.1 °F - 41.0 °F 68% 30.23 in 10.0 mi South 8.1 mph - N/A   Mostly Cloudy
8:54 AM 57.0 °F - 41.0 °F 55% 30.23 in 10.0 mi SSW 10.4 mph - N/A   Scattered Clouds
9:54 AM 61.0 °F - 42.1 °F 50% 30.24 in 10.0 mi SSW 9.2 mph - N/A   Scattered Clouds
10:54 AM 64.9 °F - 44.1 °F 47% 30.22 in 10.0 mi South 11.5 mph - N/A   Scattered Clouds
11:54 AM 68.0 °F - 44.1 °F 42% 30.19 in 10.0 mi SSW 8.1 mph - N/A   Scattered Clouds
12:36 PM 69.8 °F - 44.6 °F 40% 30.17 in 10.0 mi South 11.5 mph - N/A   Mostly Cloudy
12:54 PM 69.1 °F - 45.0 °F 42% 30.16 in 10.0 mi SSW 9.2 mph - N/A   Scattered Clouds
1:16 PM 71.6 °F - 46.4 °F 41% 30.15 in 10.0 mi South 9.2 mph - N/A   Mostly Cloudy
1:54 PM 71.1 °F - 46.9 °F 42% 30.14 in 10.0 mi SSW 9.2 mph - N/A   Scattered Clouds
2:54 PM 71.1 °F - 51.1 °F 49% 30.13 in 10.0 mi SSW 10.4 mph - N/A   Scattered Clouds
3:54 PM 70.0 °F - 50.0 °F 49% 30.12 in 10.0 mi South 11.5 mph - N/A   Scattered Clouds
4:54 PM 66.9 °F - 46.0 °F 47% 30.11 in 10.0 mi South 8.1 mph - N/A   Partly Cloudy
5:54 PM 64.0 °F - 43.0 °F 46% 30.12 in 10.0 mi SSE 8.1 mph - N/A   Partly Cloudy
6:54 PM 61.0 °F - 42.1 °F 50% 30.12 in 10.0 mi South 5.8 mph - N/A   Clear
7:54 PM 57.9 °F - 42.1 °F 56% 30.12 in 10.0 mi South 8.1 mph - N/A   Clear
8:54 PM 55.9 °F - 42.1 °F 60% 30.13 in 10.0 mi South 9.2 mph - N/A   Clear
9:54 PM 55.0 °F - 42.1 °F 62% 30.14 in 10.0 mi South 8.1 mph - N/A   Clear
10:54 PM 55.9 °F - 42.1 °F 60% 30.14 in 10.0 mi South 6.9 mph - N/A   Clear
11:54 PM 55.9 °F - 42.1 °F 60% 30.14 in 10.0 mi South 8.1 mph - N/A   Clear